Syracuse, NY

10:17 PM EST on December 11, 2019 (GMT -0500)
Syracuse Hancock International

Weather History for KSYR - October, 2019

Change the Weather History Date:

Friday, October 11, 2019

  Actual Average Record
Temperature  
Mean Temperature 54 °F 52 °F  
Max Temperature 71 °F 62 °F 86 °F (1949)
Min Temperature 37 °F 43 °F 28 °F (1943)
Degree Days  
Heating Degree Days 11 13  
Month to date heating degree days 110 125  
Since 1 July heating degree days 185 292  
Cooling Degree Days 0 0  
Month to date cooling degree days 11 0  
Year to date cooling degree days 622 565  
Growing Degree Days 4 (Base 50)    
Moisture  
Dew Point 39 °F    
Average Humidity 63    
Maximum Humidity 92    
Minimum Humidity 32    
Precipitation  
Precipitation 0.00 in 0.11 in 1.23 in (1990)
Month to date precipitation 1.57 1.26  
Year to date precipitation 35.70 29.54  
Snow  
Snow 0.00 in 0.00 in T in (1987)
Month to date snowfall 0.0 0.0  
Since 1 July snowfall T 0.0  
Since 1 September snowfall T 0.0  
Snow Depth 0.00 in    
Sea Level Pressure  
Sea Level Pressure 30.19 in    
Wind  
Wind Speed 3 mph ()    
Max Wind Speed 10 mph    
Max Gust Speed 13 mph    
Visibility 10.0 miles    
Events      
T = Trace of Precipitation, MM = Missing Value Source: Averaged Metar Reports

Daily Weather History Graph

Daily Weather History Graph

Search for Another Location

Airport or City:

Astronomy

Oct. 11, 2019 Rise Set
Actual Time 7:13 AM EDT 6:28 PM EDT
Civil Twilight 6:44 AM EDT 6:57 PM EDT
Nautical Twilight 6:11 AM EDT 7:30 PM EDT
Astronomical Twilight 5:38 AM EDT 8:02 PM EDT
Moon 6:01 PM EDT (10/11) 4:45 AM EDT (10/11)
Length of Visible Light 12h 12m
Length of Day
11h 15m
Waxing Gibbous, 96% of the Moon is Illuminated
Oct 11
Waxing Gibbous
Oct 13
Full
Oct 21
Last Quarter
Oct 27
New
Nov 4
First Quarter

Hourly Weather History & Observations

Time (EDT) Temp. Windchill Dew Point Humidity Pressure Visibility Wind Dir Wind Speed Gust Speed Precip Events Conditions
12:54 AM 45.0 °F 42.6 °F 39.9 °F 82% 30.25 in 10.0 mi East 4.6 mph - N/A   Clear
1:54 AM 43.0 °F 40.3 °F 39.0 °F 86% 30.25 in 10.0 mi ESE 4.6 mph - N/A   Clear
2:54 AM 43.0 °F - 39.0 °F 86% 30.25 in 10.0 mi Calm Calm - N/A   Clear
3:54 AM 39.9 °F - 37.0 °F 89% 30.26 in 10.0 mi Calm Calm - N/A   Clear
4:54 AM 39.9 °F - 37.0 °F 89% 30.27 in 10.0 mi Calm Calm - N/A   Partly Cloudy
5:54 AM 37.9 °F - 35.1 °F 89% 30.28 in 10.0 mi Calm Calm - N/A   Partly Cloudy
6:54 AM 37.0 °F 32.4 °F 34.0 °F 89% 30.27 in 10.0 mi East 5.8 mph - N/A   Partly Cloudy
7:54 AM 39.0 °F 36.8 °F 36.0 °F 89% 30.28 in 10.0 mi East 3.5 mph - N/A   Clear
8:54 AM 44.1 °F - 39.0 °F 82% 30.28 in 10.0 mi Calm Calm - N/A   Partly Cloudy
9:54 AM 51.1 °F - 41.0 °F 68% 30.27 in 10.0 mi Calm Calm - N/A   Partly Cloudy
10:54 AM 57.9 °F - 41.0 °F 53% 30.25 in 10.0 mi East 3.5 mph - N/A   Clear
11:54 AM 63.0 °F - 36.0 °F 37% 30.22 in 10.0 mi NE 4.6 mph - N/A   Partly Cloudy
12:54 PM 66.0 °F - 35.1 °F 32% 30.19 in 10.0 mi East 3.5 mph - N/A   Partly Cloudy
1:54 PM 68.0 °F - 39.0 °F 35% 30.17 in 10.0 mi ENE 5.8 mph - N/A   Partly Cloudy
2:54 PM 69.1 °F - 39.9 °F 35% 30.14 in 10.0 mi East 5.8 mph - N/A   Partly Cloudy
3:54 PM 70.0 °F - 41.0 °F 35% 30.13 in 10.0 mi ESE 6.9 mph - N/A   Partly Cloudy
4:54 PM 70.0 °F - 43.0 °F 38% 30.11 in 10.0 mi NE 8.1 mph - N/A   Partly Cloudy
5:54 PM 66.0 °F - 43.0 °F 43% 30.11 in 10.0 mi North 4.6 mph - N/A   Partly Cloudy
6:54 PM 57.0 °F - 43.0 °F 59% 30.11 in 10.0 mi NNE 6.9 mph - N/A   Partly Cloudy
7:54 PM 57.0 °F - 42.1 °F 57% 30.11 in 10.0 mi ENE 4.6 mph - N/A   Mostly Cloudy
8:54 PM 57.0 °F - 36.0 °F 45% 30.10 in 10.0 mi East 8.1 mph - N/A   Scattered Clouds
9:54 PM 53.1 °F - 39.0 °F 59% 30.10 in 10.0 mi Calm Calm - N/A   Scattered Clouds
10:54 PM 52.0 °F - 39.0 °F 61% 30.08 in 10.0 mi East 3.5 mph - N/A   Mostly Cloudy
11:54 PM 50.0 °F - 39.0 °F 66% 30.05 in 10.0 mi ESE 4.6 mph - N/A   Partly Cloudy